Temperature
17 18 18 19 19 20 20 19 18 18 18 17 17 18 18 18 18 19 19 19 19 19 19 19 19 18 18 18 17 17 16 16 16 16 16 17 17 17 17 17 17 17 17
16 17 17 18 18 19 19 19 18 18 18 17 18 18 18 18 18 19 19 19 19 19 19 19 19 19 18 18 17 17 16 16 16 15 15 15 16 17 17 17 17 17 17
15 16 16 17 17 17 17 17 17 17 17 17 17 18 18 18 18 18 19 19 19 19 19 19 19 19 19 18 18 17 17 16 16 15 15 14 14 15 16 17 17 17 17
15 15 16 16 16 16 16 16 16 16 16 16 17 17 18 18 18 18 18 18 18 18 18 18 18 18 18 18 18 17 17 16 16 16 15 14 14 14 14 16 16 16 17
15 15 16 16 16 16 16 16 16 16 16 16 16 17 17 17 18 18 18 18 18 18 18 18 18 18 18 18 18 18 17 17 16 16 15 15 14 14 14 14 16 16 16
16 16 16 16 16 16 16 16 16 16 16 16 16 16 16 16 17 17 17 17 17 17 17 17 17 17 17 17 17 17 17 17 16 16 15 15 14 14 13 13 14 15 16
16 16 16 16 16 16 16 16 16 15 15 15 15 15 15 15 15 15 15 16 16 16 16 16 16 16 16 17 17 17 17 16 16 16 15 15 14 14 14 13 14 14 15
16 16 16 16 16 16 16 16 15 15 15 15 14 14 14 14 14 14 14 14 14 14 14 15 15 15 16 16 16 16 16 16 16 16 15 15 15 14 14 14 13 13 14
16 16 16 16 16 15 15 15 15 15 14 14 14 14 13 13 13 13 13 12 13 13 13 13 14 14 15 15 15 15 15 15 15 15 15 15 15 14 14 14 14 13 13
16 16 16 16 16 15 15 15 14 14 14 13 13 13 13 12 12 12 12 12 12 12 12 12 12 13 13 14 14 14 14 15 15 15 15 15 14 14 14 14 14 13 13
17 16 16 16 16 15 15 14 14 13 13 13 13 12 12 12 12 11 11 11 11 11 11 11 11 12 12 12 13 13 13 14 14 14 14 14 14 14 14 14 14 14 13
16 16 15 15 14 14 14 14 13 13 13 12 12 12 12 11 11 11 11 11 10 10 10 10 10 11 11 12 12 12 13 13 13 14 14 14 14 14 14 14 14 14 14
15 15 14 14 14 14 13 13 13 13 12 12 12 12 11 11 11 11 11 10 10 10 10 10 10 10 10 11 11 11 12 12 13 13 13 13 13 14 14 14 14 14 14
14 14 14 13 13 13 13 13 12 12 12 12 12 11 11 11 11 11 10 10 10 10 10 9 9 9 9 10 10 11 11 12 12 12 13 13 13 14 14 14 14 14 14
13 13 13 13 13 13 12 12 12 12 12 11 11 11 11 11 11 10 10 10 10 10 10 9 9 9 9 9 9 10 10 11 11 12 12 13 13 13 13 14 14 14 13
13 13 13 13 12 12 12 12 12 11 11 11 11 11 11 10 10 10 10 10 10 10 9 9 9 9 9 9 9 9 9 10 10 11 12 12 13 13 13 13 13 13 13
13 13 12 12 12 11 11 11 11 10 10 10 10 10 10 10 10 10 9 9 9 9 9 9 9 9 9 9 9 9 9 9 10 10 11 12 12 13 13 13 13 13 13
12 12 11 11 11 10 10 10 9 9 9 9 9 9 9 9 9 9 9 9 9 9 9 9 9 9 9 9 9 9 9 9 9 10 10 11 12 12 12 13 13 12 12
11 11 10 10 9 9 8 8 8 8 8 7 7 7 7 7 7 8 8 8 8 8 8 8 8 8 8 8 9 8 8 9 9 9 10 10 11 12 12 12 12 12 12
10 9 9 8 8 7 7 6 6 6 6 6 6 6 6 6 6 6 7 7 7 7 8 8 8 8 8 8 8 8 8 8 9 9 10 10 11 11 11 12 12 12 12
9 8 7 7 6 6 6 5 5 5 5 5 5 5 5 5 5 6 6 6 6 7 7 7 7 7 8 8 8 8 8 8 8 9 9 10 10 11 11 11 12 12 12
8 7 6 6 6 5 5 5 5 5 5 5 5 5 5 5 5 5 5 5 6 6 6 6 7 7 7 8 8 8 8 8 8 8 9 9 10 10 11 11 11 11 11
7 6 5 5 5 5 5 5 5 5 5 5 5 5 5 5 5 5 5 5 5 5 6 6 6 7 7 8 8 8 8 8 8 8 9 9 9 10 10 10 11 11 11
6 5 5 5 5 5 5 5 5 5 5 5 5 5 5 5 5 5 5 5 5 5 6 6 6 7 7 7 8 8 8 8 8 8 8 8 9 9 10 10 10 11 11
5 5 5 5 5 5 5 5 5 5 5 5 5 5 5 5 5 5 5 5 5 5 6 6 6 6 7 7 8 8 8 8 8 8 8 8 8 9 9 10 10 10 11
5 5 5 5 5 5 6 6 6 5 5 5 5 5 5 5 5 5 5 5 5 5 6 6 6 6 7 7 7 7 8 8 8 7 7 7 8 8 9 9 10 10 10
Wind_Speed
8 8 7 6 6 5 7 5 1 1 0 1 2 2 2 3 2 3 5 7 8 9 6 5 4 4 3 2 1 1 1 2 1 2 4 5 6 5 5 5 5 5 6
8 7 6 6 5 4 5 3 1 1 1 2 3 2 2 3 3 3 4 6 7 8 7 7 6 5 3 2 0 1 1 1 0 1 2 4 5 4 3 2 3 4 4
7 6 7 7 8 9 7 5 4 4 3 3 3 2 1 1 1 2 3 4 5 7 7 8 7 6 5 4 3 3 3 2 1 2 2 1 3 4 4 3 2 3 3
7 7 8 10 10 9 8 8 7 6 5 4 2 1 1 2 2 2 3 3 4 5 6 8 8 7 6 5 5 4 4 4 2 2 2 3 4 2 4 4 3 4 4
5 6 7 8 8 7 7 7 8 8 7 6 5 4 3 3 2 2 3 2 3 5 6 7 7 8 6 7 6 5 5 4 4 4 3 3 3 4 4 5 5 4 3
3 4 6 6 6 6 6 6 7 7 7 7 7 7 6 6 6 5 4 4 4 3 4 5 6 7 7 7 7 6 6 5 5 5 4 4 4 4 4 5 5 5 4
3 3 4 4 3 3 3 3 4 4 5 5 6 6 6 6 6 6 5 5 4 4 4 4 5 6 7 8 7 6 6 6 6 6 5 5 6 5 4 4 4 4 3
4 4 4 4 4 4 3 2 1 1 2 2 3 3 4 3 4 5 5 5 4 5 5 6 5 5 7 7 7 6 6 6 7 7 7 5 6 5 5 4 3 3 2
6 6 6 6 7 7 6 6 5 3 3 2 2 2 3 3 4 5 4 4 5 5 7 7 7 6 5 6 6 5 7 7 7 7 7 6 6 5 5 5 5 4 3
5 6 6 7 8 8 7 6 6 6 6 6 6 5 5 5 5 4 5 5 5 5 7 7 7 7 7 6 6 6 7 7 7 6 7 7 6 5 5 5 5 6 5
4 5 6 7 7 6 6 7 7 7 8 8 8 8 8 8 7 6 7 7 6 6 6 6 7 7 7 7 6 7 8 8 8 7 7 8 7 5 5 5 5 5 5
6 6 7 6 5 5 6 7 8 9 10 10 10 10 10 9 8 9 9 8 8 7 7 7 7 7 7 7 6 8 8 8 9 8 8 8 7 7 5 5 5 5 5
8 7 6 5 5 6 8 9 10 11 11 11 11 11 11 11 11 11 11 10 9 9 8 7 8 8 7 7 7 7 8 8 9 8 8 8 7 7 5 5 5 4 5
6 6 6 7 8 9 9 10 11 11 11 11 11 12 13 13 13 12 12 11 10 10 10 9 9 9 8 8 7 7 7 7 8 8 8 8 8 8 7 6 5 4 5
9 10 9 9 9 10 10 10 11 11 11 11 12 13 14 13 13 12 12 12 11 12 11 10 9 9 8 8 7 6 6 6 7 7 7 8 10 10 8 6 6 6 6
12 12 12 12 12 12 12 11 11 11 11 11 12 12 12 12 12 12 12 12 12 12 11 10 10 10 9 11 12 8 6 6 7 7 7 7 8 10 10 10 10 10 9
15 14 13 13 13 12 12 12 11 11 10 11 11 11 11 12 12 12 11 11 12 11 11 11 10 10 11 14 14 13 7 7 7 7 7 7 7 8 6 7 8 8 11
14 14 12 12 12 11 11 11 11 11 11 11 11 11 11 11 11 11 11 10 9 9 9 10 10 10 11 14 15 14 8 7 7 7 8 9 8 9 9 7 6 5 6
13 12 12 13 12 12 13 13 14 13 13 13 12 11 10 11 10 10 10 9 8 8 8 7 10 10 11 14 14 13 6 6 7 7 8 10 10 12 13 10 8 7 5
11 11 10 11 12 13 13 14 14 14 14 14 13 12 11 11 11 11 9 8 8 9 9 9 9 10 10 13 15 13 6 6 6 6 7 11 13 15 15 11 11 11 8
11 10 12 12 13 14 14 15 16 16 16 15 14 14 13 12 12 11 9 9 8 8 8 9 9 9 11 12 15 14 7 7 6 5 5 7 14 16 17 14 11 13 12
11 12 13 15 15 14 15 17 18 18 16 16 15 15 13 12 12 9 9 8 8 9 8 8 8 7 8 11 12 15 14 10 7 5 4 5 13 16 17 13 13 16 14
13 13 15 17 17 15 15 18 19 18 16 15 15 14 13 11 10 9 9 8 7 7 7 7 7 7 6 8 13 14 14 13 7 5 5 5 11 16 14 15 18 16 11
14 15 17 19 19 18 18 17 18 16 15 14 13 11 10 9 9 8 7 7 6 7 7 7 7 6 5 5 5 5 6 8 7 5 5 5 10 12 11 14 14 10 10
14 15 17 19 20 20 19 18 16 15 14 13 11 10 8 8 7 6 6 7 7 7 7 7 6 6 6 8 10 8 7 7 7 6 4 4 7 9 9 10 9 8 10
16 17 18 19 19 19 18 17 15 14 12 11 9 7 6 5 5 4 4 6 7 9 12 10 7 5 7 8 11 11 10 10 11 8 5 7 8 11 12 12 9 8 10
Wind_Direction
56 57 61 73 80 73 82 82 69 289 329 302 297 291 281 273 259 222 194 179 170 164 160 159 156 142 146 176 203 218 277 286 288 337 314 298 281 272 264 266 271 266 257
49 47 49 54 58 69 84 101 57 298 243 244 251 241 231 256 250 234 203 186 173 168 167 161 162 160 159 164 167 172 189 271 293 175 313 328 332 334 307 305 299 302 304
54 53 52 54 57 45 35 33 16 0 338 287 268 293 322 307 332 266 231 212 186 175 168 171 170 175 173 187 199 194 186 212 266 198 187 245 284 309 307 298 310 328 321
45 52 55 55 54 47 38 34 32 29 6 348 342 305 248 250 251 252 248 239 216 198 185 181 182 186 186 191 202 194 188 180 223 264 221 212 210 251 306 311 307 319 319
54 64 66 66 60 50 42 35 33 31 23 27 21 20 5 327 322 335 329 302 262 232 214 200 193 196 195 197 199 201 208 198 201 211 224 244 239 218 230 289 312 323 311
91 82 77 73 65 56 50 43 38 28 18 24 24 24 12 358 1 358 342 326 314 293 266 235 215 207 202 204 204 205 211 214 217 218 212 215 227 226 220 253 292 305 306
159 122 101 94 100 91 76 61 50 27 15 22 19 16 10 5 2 349 335 330 327 322 311 281 241 222 213 211 206 205 216 217 222 225 226 224 226 222 220 238 264 277 295
177 163 167 174 182 181 173 162 135 349 351 8 356 354 354 350 339 334 332 332 325 314 315 316 284 252 229 220 210 212 220 222 226 234 232 231 234 221 214 215 230 274 288
180 187 195 199 205 206 207 199 194 218 254 270 283 293 309 315 313 315 320 318 318 321 334 331 321 304 274 247 228 225 227 225 229 235 237 237 239 229 222 212 202 209 244
191 202 212 220 221 216 212 202 196 208 225 235 243 245 246 251 260 277 290 295 300 310 320 326 325 322 311 287 258 246 241 234 236 235 237 239 239 235 228 219 211 205 206
242 251 253 248 243 228 213 206 211 217 228 234 238 241 242 241 241 249 258 264 272 285 296 302 306 307 305 302 285 265 252 242 242 242 236 238 233 234 235 226 218 208 197
296 294 296 299 295 265 244 234 232 231 234 235 237 241 244 243 242 245 248 250 256 264 269 276 284 290 295 299 297 291 279 258 247 242 236 239 236 232 232 228 225 213 195
329 332 334 321 288 265 254 249 245 241 242 239 238 243 245 243 242 243 244 242 244 251 256 258 263 269 276 281 284 286 286 274 256 241 231 232 225 231 231 228 226 213 196
337 326 309 291 276 266 258 255 253 249 247 243 239 241 244 243 242 242 242 240 237 240 245 247 250 255 262 268 273 279 284 283 271 251 232 224 218 221 221 224 219 197 178
320 309 298 287 278 272 266 260 256 253 248 242 239 239 240 241 241 240 240 239 237 239 238 240 244 247 251 256 256 262 280 286 285 269 240 224 218 213 210 211 205 182 175
311 305 298 292 286 280 277 272 267 261 251 244 242 240 239 238 236 236 236 236 236 238 236 235 237 241 249 253 257 259 265 272 276 271 253 230 214 211 210 211 203 186 177
311 306 301 296 294 291 289 288 283 278 268 258 253 246 239 236 234 235 233 231 233 234 233 233 231 234 240 246 252 257 253 256 264 260 247 227 209 194 191 195 191 189 184
305 305 305 304 301 300 303 300 297 293 285 277 270 261 251 244 236 230 228 228 227 225 228 231 229 230 239 239 243 249 247 248 255 254 242 224 200 194 182 171 163 160 163
304 306 309 311 314 314 314 311 306 300 294 288 282 278 272 264 249 235 228 224 222 224 224 224 224 225 237 239 240 241 235 241 253 259 250 223 201 193 178 167 157 144 138
310 315 320 319 317 315 314 312 308 304 298 293 288 282 274 270 260 245 235 229 223 226 226 227 223 222 230 237 237 234 219 235 250 262 257 224 202 187 177 170 161 153 146
318 321 319 316 312 309 308 304 301 297 294 291 286 281 273 265 261 251 241 234 231 227 225 226 226 225 228 234 234 227 207 217 232 247 256 226 199 184 179 170 168 160 147
320 319 317 315 311 308 306 304 300 297 295 291 286 281 272 267 268 252 243 233 226 225 225 225 231 232 230 229 232 225 215 210 212 229 241 232 195 185 176 170 160 148 140
319 319 319 317 315 312 308 305 303 301 297 292 288 282 274 263 258 252 246 237 224 222 222 218 225 233 231 230 229 224 220 213 206 217 226 230 195 182 177 166 156 151 145
323 325 324 322 321 319 315 308 305 304 298 293 289 285 277 265 256 250 241 234 225 221 219 215 220 226 226 222 212 205 206 205 207 215 219 196 185 181 171 162 160 157 151
326 326 325 323 320 319 318 316 313 310 305 300 294 289 279 267 258 248 238 231 225 216 212 213 209 208 219 220 199 182 184 186 189 176 167 167 179 175 167 164 158 147 142
328 327 326 323 321 321 321 321 321 319 316 313 308 299 288 277 263 252 256 239 235 236 226 219 203 206 207 193 185 184 181 178 172 166 170 179 181 172 167 164 154 146 147
Height
1495 1494 1494 1494 1493 1492 1491 1490 1489 1487 1489 1490 1492 1494 1496 1499 1501 1502 1503 1505 1505 1506 1507 1506 1505 1504 1503 1502 1501 1501 1500 1499 1498 1497 1495 1494 1493 1493 1493 1493 1493 1494 1494
1498 1497 1496 1495 1494 1493 1491 1490 1490 1489 1490 1492 1493 1495 1497 1498 1499 1500 1500 1501 1502 1503 1504 1504 1503 1502 1501 1499 1498 1497 1497 1496 1495 1494 1492 1490 1489 1488 1489 1490 1490 1490 1490
1504 1499 1497 1496 1494 1492 1492 1492 1491 1490 1491 1492 1493 1493 1495 1496 1497 1497 1498 1499 1499 1500 1500 1501 1500 1499 1498 1497 1495 1494 1494 1493 1492 1492 1491 1489 1486 1484 1483 1485 1486 1486 1486
1506 1501 1498 1495 1494 1495 1495 1494 1493 1493 1493 1493 1492 1493 1494 1494 1494 1495 1495 1495 1495 1496 1496 1496 1496 1496 1495 1494 1492 1492 1491 1490 1489 1488 1488 1488 1486 1484 1480 1480 1482 1482 1482
1508 1503 1500 1498 1497 1498 1497 1496 1496 1496 1494 1494 1493 1493 1493 1492 1491 1491 1491 1491 1491 1491 1491 1492 1492 1492 1492 1491 1489 1489 1488 1487 1485 1484 1484 1484 1483 1481 1480 1477 1476 1477 1478
1509 1505 1502 1500 1500 1500 1499 1499 1498 1497 1495 1494 1492 1491 1490 1488 1488 1487 1487 1486 1486 1486 1486 1486 1487 1487 1487 1487 1486 1485 1484 1484 1482 1481 1480 1479 1479 1477 1476 1475 1473 1473 1473
1508 1506 1503 1502 1502 1501 1500 1499 1498 1497 1495 1493 1491 1489 1487 1486 1484 1483 1482 1481 1481 1480 1480 1480 1480 1481 1481 1481 1481 1481 1480 1479 1478 1477 1476 1475 1475 1474 1473 1471 1470 1470 1470
1508 1506 1504 1503 1502 1501 1499 1498 1497 1495 1493 1491 1489 1487 1485 1483 1481 1480 1478 1476 1475 1474 1474 1473 1474 1474 1475 1475 1476 1475 1475 1475 1474 1473 1472 1471 1470 1469 1468 1468 1467 1466 1466
1507 1505 1503 1502 1500 1498 1497 1495 1493 1492 1490 1488 1486 1484 1482 1479 1477 1475 1473 1472 1470 1468 1467 1467 1467 1467 1468 1468 1469 1469 1470 1469 1469 1468 1467 1466 1466 1465 1464 1463 1464 1464 1463
1506 1503 1501 1499 1497 1494 1492 1490 1489 1488 1486 1484 1482 1479 1477 1475 1473 1471 1469 1467 1465 1463 1462 1461 1460 1460 1461 1462 1462 1462 1463 1463 1463 1463 1462 1462 1461 1460 1459 1459 1459 1459 1460
1504 1502 1499 1496 1493 1490 1488 1487 1485 1483 1481 1479 1477 1475 1472 1470 1468 1466 1464 1462 1460 1458 1457 1455 1454 1454 1454 1454 1455 1455 1456 1456 1457 1457 1456 1456 1456 1455 1455 1454 1453 1453 1454
1503 1500 1496 1493 1490 1487 1485 1483 1481 1479 1476 1474 1471 1469 1466 1463 1461 1460 1458 1456 1455 1453 1451 1450 1449 1448 1447 1447 1447 1448 1448 1449 1449 1450 1451 1450 1451 1450 1450 1449 1448 1448 1449
1500 1497 1493 1490 1487 1484 1481 1478 1475 1472 1469 1466 1463 1461 1459 1456 1454 1453 1452 1450 1449 1447 1446 1445 1443 1442 1441 1441 1440 1440 1441 1441 1442 1443 1444 1444 1445 1445 1444 1444 1443 1443 1444
1496 1493 1489 1485 1482 1478 1474 1470 1467 1464 1460 1457 1454 1452 1450 1448 1446 1445 1444 1443 1442 1441 1440 1439 1437 1436 1435 1434 1434 1434 1434 1434 1435 1436 1437 1438 1439 1439 1439 1438 1438 1438 1439
1491 1487 1483 1478 1474 1470 1466 1461 1457 1454 1451 1448 1445 1443 1441 1439 1437 1436 1435 1434 1433 1432 1432 1431 1431 1430 1429 1428 1428 1427 1427 1427 1428 1429 1430 1431 1433 1433 1434 1433 1433 1433 1434
1485 1480 1475 1470 1465 1460 1456 1451 1447 1444 1440 1437 1434 1432 1430 1429 1427 1426 1425 1424 1424 1424 1424 1423 1423 1423 1423 1422 1422 1421 1421 1421 1421 1422 1423 1425 1426 1427 1428 1428 1428 1429 1430
1479 1474 1468 1463 1457 1452 1446 1441 1437 1433 1429 1426 1423 1421 1419 1417 1416 1415 1415 1414 1414 1414 1414 1414 1415 1415 1415 1416 1415 1415 1415 1414 1414 1415 1416 1418 1420 1421 1423 1423 1424 1425 1426
1473 1467 1461 1455 1449 1444 1438 1432 1427 1422 1418 1414 1411 1409 1407 1405 1404 1404 1403 1404 1404 1404 1405 1405 1406 1406 1407 1408 1408 1409 1408 1408 1408 1409 1410 1412 1413 1415 1417 1419 1420 1421 1423
1468 1462 1456 1449 1442 1435 1429 1423 1416 1411 1406 1402 1399 1396 1394 1392 1391 1391 1392 1392 1393 1394 1395 1396 1397 1398 1399 1400 1401 1402 1401 1401 1402 1402 1404 1405 1407 1410 1412 1414 1416 1418 1420
1463 1456 1449 1442 1435 1427 1420 1413 1407 1401 1396 1391 1387 1384 1382 1380 1379 1379 1380 1381 1382 1384 1385 1386 1388 1389 1391 1392 1393 1394 1395 1395 1396 1396 1397 1399 1401 1404 1407 1410 1413 1415 1417
1457 1450 1442 1435 1427 1419 1412 1404 1397 1391 1386 1380 1376 1372 1370 1368 1367 1367 1368 1370 1371 1373 1375 1377 1379 1381 1382 1384 1386 1387 1388 1389 1390 1390 1391 1393 1395 1399 1403 1407 1410 1413 1416
1450 1443 1434 1426 1418 1411 1404 1395 1388 1382 1376 1370 1365 1361 1359 1357 1357 1357 1357 1359 1361 1363 1365 1368 1370 1372 1374 1376 1378 1380 1381 1383 1384 1385 1386 1387 1391 1394 1399 1404 1408 1412 1415
1444 1436 1428 1419 1411 1404 1397 1388 1380 1373 1366 1361 1356 1352 1349 1348 1347 1348 1348 1350 1352 1354 1356 1359 1361 1364 1366 1369 1371 1373 1374 1376 1378 1379 1380 1382 1385 1390 1396 1401 1406 1411 1414
1438 1430 1422 1413 1405 1397 1390 1382 1374 1366 1359 1353 1348 1344 1341 1340 1340 1340 1341 1342 1344 1346 1349 1352 1355 1357 1359 1362 1364 1366 1368 1370 1372 1374 1375 1377 1380 1386 1392 1399 1405 1410 1414
1434 1426 1418 1409 1400 1392 1384 1376 1368 1361 1354 1348 1342 1338 1336 1334 1334 1334 1335 1336 1338 1341 1344 1346 1349 1352 1354 1357 1359 1361 1363 1365 1367 1369 1371 1373 1376 1381 1388 1395 1402 1408 1414
1430 1422 1414 1405 1397 1389 1381 1373 1365 1358 1351 1344 1339 1335 1333 1331 1330 1330 1331 1333 1335 1337 1339 1342 1345 1348 1350 1353 1355 1357 1359 1361 1363 1365 1367 1369 1373 1379 1385 1393 1400 1407 1413